| time (UTC) | temp C | wind direction | speed KPH | gust KPH | rain 1hr cm | rain 24hr cm | rain mn cm | humidity % | barometer mb |
| 20260508224544 | 20 | 137 | 3.2 | 0.0 | 0.00 | 0.00 | 0.00 | 22 | 1006.0 |
| 20260508223042 | 21 | 213 | 1.6 | 0.0 | 0.00 | 0.00 | 0.00 | 22 | 1005.7 |
| 20260508221541 | 21 | 230 | 1.6 | 0.0 | 0.00 | 0.00 | 0.00 | 21 | 1006.0 |
| 20260508220040 | 21 | 141 | 1.6 | 0.0 | 0.00 | 0.00 | 0.00 | 16 | 1006.2 |
| 20260508214538 | 21 | 213 | 1.6 | 0.0 | 0.00 | 0.00 | 0.00 | 17 | 1006.3 |
| 20260508213037 | 21 | 223 | 1.6 | 0.0 | 0.00 | 0.00 | 0.00 | 14 | 1006.7 |
| 20260508211536 | 21 | 200 | 1.6 | 0.0 | 0.00 | 0.00 | 0.00 | 15 | 1006.6 |
| 20260508210035 | 21 | 138 | 1.6 | 0.0 | 0.00 | 0.00 | 0.00 | 12 | 1006.8 |
| 20260508204535 | 21 | 217 | 1.6 | 0.0 | 0.00 | 0.00 | 0.00 | 9 | 1006.9 |
| 20260508203037 | 22 | 195 | 0.0 | 0.0 | 0.00 | 0.00 | 0.00 | 11 | 1006.3 |
| 20260508201531 | 22 | 169 | 1.6 | 0.0 | 0.00 | 0.00 | 0.00 | 9 | 1006.9 |
| 20260508200030 | 21 | 236 | 1.6 | 0.0 | 0.00 | 0.00 | 0.00 | 9 | 1006.5 |
| 20260508194528 | 21 | 246 | 1.6 | 0.0 | 0.00 | 0.00 | 0.00 | 9 | 1006.8 |
| 20260508193027 | 21 | 202 | 0.0 | 0.0 | 0.00 | 0.00 | 0.00 | 9 | 1007.3 |
| 20260508191523 | 21 | 192 | 0.0 | 0.0 | 0.00 | 0.00 | 0.00 | 10 | 1007.5 |
| 20260508190035 | 21 | 202 | 0.0 | 0.0 | 0.00 | 0.00 | 0.00 | 11 | 1007.2 |
| 20260508184524 | 20 | 226 | 0.0 | 0.0 | 0.00 | 0.00 | 0.00 | 13 | 1007.2 |
| 20260508183020 | 20 | 339 | 0.0 | 0.0 | 0.00 | 0.00 | 0.00 | 12 | 1007.3 |
| 20260508181517 | 19 | 243 | 0.0 | 0.0 | 0.00 | 0.00 | 0.00 | 13 | 1007.9 |
| 20260508180015 | 18 | 209 | 0.0 | 0.0 | 0.00 | 0.00 | 0.00 | 13 | 1007.8 |
| 20260508174528 | 18 | 215 | 0.0 | 0.0 | 0.00 | 0.00 | 0.00 | 15 | 1007.6 |
| 20260508173011 | 18 | 44 | 0.0 | 0.0 | 0.00 | 0.00 | 0.00 | 21 | 1007.8 |
| 20260508171507 | 17 | 253 | 0.0 | 0.0 | 0.00 | 0.00 | 0.00 | 17 | 1008.0 |
| 20260508170002 | 17 | 253 | 0.0 | 0.0 | 0.00 | 0.00 | 0.00 | 17 | 1007.4 |
| 20260508164604 | 17 | 164 | 0.0 | 0.0 | 0.00 | 0.00 | 0.00 | 22 | 1007.9 |
| 20260508163114 | 16 | 270 | 0.0 | 0.0 | 0.00 | 0.00 | 0.00 | 18 | 1008.0 |
| 20260508161551 | 16 | 161 | 0.0 | 0.0 | 0.00 | 0.00 | 0.00 | 20 | 1008.3 |
| 20260508160050 | 15 | 185 | 0.0 | 0.0 | 0.00 | 0.00 | 0.00 | 20 | 1007.8 |
| 20260508154552 | 14 | 161 | 0.0 | 0.0 | 0.00 | 0.00 | 0.00 | 20 | 1008.2 |
| 20260508153043 | 13 | 147 | 0.0 | 0.0 | 0.00 | 0.00 | 0.00 | 23 | 1008.7 |
| 20260508151541 | 11 | 145 | 0.0 | 0.0 | 0.00 | 0.00 | 0.00 | 28 | 1009.6 |
| 20260508150033 | 10 | 145 | 0.0 | 0.0 | 0.00 | 0.00 | 0.00 | 33 | 1009.1 |
| 20260508144536 | 9 | 145 | 0.0 | 0.0 | 0.00 | 0.00 | 0.00 | 37 | 1009.3 |
| 20260508143027 | 8 | 145 | 0.0 | 0.0 | 0.00 | 0.00 | 0.00 | 40 | 1009.4 |
| 20260508141524 | 7 | 145 | 0.0 | 0.0 | 0.00 | 0.00 | 0.00 | 40 | 1010.0 |
| 20260508140029 | 7 | 145 | 0.0 | 0.0 | 0.00 | 0.00 | 0.00 | 39 | 1009.3 |
| 20260508134525 | 6 | 145 | 0.0 | 0.0 | 0.00 | 0.00 | 0.00 | 36 | 1009.8 |
| 20260508133022 | 6 | 145 | 0.0 | 0.0 | 0.00 | 0.00 | 0.00 | 37 | 1009.7 |
| 20260508131520 | 6 | 145 | 0.0 | 0.0 | 0.00 | 0.00 | 0.00 | 38 | 1009.6 |
| 20260508130019 | 6 | 145 | 0.0 | 0.0 | 0.00 | 0.00 | 0.00 | 39 | 1008.0 |
| 20260508124518 | 6 | 145 | 0.0 | 0.0 | 0.00 | 0.00 | 0.00 | 36 | 1007.9 |
| 20260508123017 | 6 | 145 | 0.0 | 0.0 | 0.00 | 0.00 | 0.00 | 39 | 1007.9 |
| 20260508121517 | 6 | 145 | 0.0 | 0.0 | 0.00 | 0.00 | 0.00 | 39 | 1007.9 |
| 20260508120016 | 6 | 145 | 0.0 | 0.0 | 0.00 | 0.00 | 0.00 | 39 | 1007.8 |
| 20260508114515 | 6 | 145 | 0.0 | 0.0 | 0.00 | 0.00 | 0.00 | 41 | 1007.9 |
| 20260508113014 | 6 | 145 | 0.0 | 0.0 | 0.00 | 0.00 | 0.00 | 39 | 1007.9 |
| 20260508111513 | 6 | 145 | 0.0 | 0.0 | 0.00 | 0.00 | 0.00 | 40 | 1007.8 |
| 20260508110011 | 6 | 145 | 0.0 | 0.0 | 0.00 | 0.00 | 0.00 | 41 | 1006.9 |
| 20260508104510 | 6 | 145 | 0.0 | 0.0 | 0.00 | 0.00 | 0.00 | 39 | 1006.9 |
| 20260508103012 | 6 | 145 | 0.0 | 0.0 | 0.00 | 0.00 | 0.00 | 41 | 1007.0 |
| 20260508101522 | 6 | 145 | 0.0 | 0.0 | 0.00 | 0.00 | 0.00 | 41 | 1007.1 |
| 20260508100007 | 6 | 145 | 0.0 | 0.0 | 0.00 | 0.00 | 0.00 | 42 | 1007.2 |
| 20260508094507 | 6 | 145 | 0.0 | 0.0 | 0.00 | 0.00 | 0.00 | 43 | 1007.2 |
| 20260508093020 | 7 | 145 | 0.0 | 0.0 | 0.00 | 0.00 | 0.00 | 43 | 1007.2 |
| 20260508091503 | 7 | 145 | 0.0 | 0.0 | 0.00 | 0.00 | 0.00 | 43 | 1007.3 |
| 20260508090006 | 7 | 145 | 0.0 | 0.0 | 0.00 | 0.00 | 0.00 | 44 | 1007.4 |
| 20260508084502 | 7 | 145 | 0.0 | 0.0 | 0.00 | 0.00 | 0.00 | 47 | 1007.5 |
| 20260508083001 | 7 | 145 | 0.0 | 0.0 | 0.00 | 0.00 | 0.00 | 46 | 1007.5 |
| 20260508081615 | 7 | 145 | 0.0 | 0.0 | 0.00 | 0.00 | 0.00 | 47 | 1007.6 |
| 20260508080104 | 7 | 145 | 0.0 | 0.0 | 0.00 | 0.00 | 0.00 | 49 | 1007.4 |
| 20260508074557 | 7 | 145 | 0.0 | 0.0 | 0.00 | 0.00 | 0.00 | 48 | 1007.5 |
| 20260508073059 | 7 | 145 | 0.0 | 0.0 | 0.00 | 0.00 | 0.00 | 48 | 1007.6 |
| 20260508071556 | 7 | 145 | 0.0 | 0.0 | 0.00 | 0.00 | 0.00 | 47 | 1007.5 |
| 20260508070056 | 7 | 145 | 0.0 | 0.0 | 0.00 | 0.00 | 0.00 | 48 | 1007.9 |
| 20260508064555 | 8 | 145 | 0.0 | 0.0 | 0.00 | 0.00 | 0.00 | 48 | 1008.0 |
| 20260508063056 | 8 | 145 | 0.0 | 0.0 | 0.00 | 0.00 | 0.00 | 49 | 1007.8 |
| 20260508061605 | 8 | 145 | 0.0 | 0.0 | 0.00 | 0.00 | 0.00 | 50 | 1007.3 |
| 20260508060055 | 8 | 145 | 0.0 | 0.0 | 0.00 | 0.00 | 0.00 | 50 | 1008.3 |
| 20260508054630 | 8 | 175 | 0.0 | 0.0 | 0.00 | 0.00 | 0.00 | 50 | 1008.4 |
| 20260508053053 | 8 | 175 | 0.0 | 0.0 | 0.00 | 0.00 | 0.00 | 50 | 1008.5 |
| 20260508051552 | 9 | 175 | 0.0 | 0.0 | 0.00 | 0.00 | 0.00 | 49 | 1008.5 |
| 20260508050053 | 9 | 175 | 0.0 | 0.0 | 0.00 | 0.00 | 0.00 | 49 | 1008.4 |
| 20260508044600 | 9 | 175 | 0.0 | 0.0 | 0.00 | 0.00 | 0.00 | 48 | 1008.4 |
| 20260508043051 | 10 | 175 | 0.0 | 0.0 | 0.00 | 0.00 | 0.00 | 48 | 1008.3 |
| 20260508041557 | 10 | 175 | 0.0 | 0.0 | 0.00 | 0.00 | 0.00 | 47 | 1008.0 |
| 20260508040055 | 10 | 175 | 0.0 | 0.0 | 0.00 | 0.00 | 0.00 | 46 | 1008.8 |
| 20260508034600 | 11 | 175 | 0.0 | 0.0 | 0.00 | 0.00 | 0.00 | 43 | 1008.3 |
| 20260508033050 | 11 | 175 | 0.0 | 0.0 | 0.00 | 0.00 | 0.00 | 40 | 1008.2 |
| 20260508031558 | 12 | 192 | 0.0 | 0.0 | 0.00 | 0.00 | 0.00 | 37 | 1007.5 |
| 20260508030106 | 13 | 192 | 0.0 | 0.0 | 0.00 | 0.00 | 0.00 | 35 | 1009.2 |
| 20260508024548 | 13 | 192 | 0.0 | 0.0 | 0.00 | 0.00 | 0.00 | 33 | 1009.3 |
| 20260508023048 | 14 | 192 | 0.0 | 0.0 | 0.00 | 0.00 | 0.00 | 1008.1 | |
| 20260508021547 | 14 | 76 | 0.0 | 0.0 | 0.00 | 0.00 | 0.00 | 30 | 1009.2 |
| 20260508020046 | 15 | 234 | 0.0 | 0.0 | 0.00 | 0.00 | 0.00 | 28 | 1010.2 |
| 20260508014546 | 15 | 232 | 0.0 | 0.0 | 0.00 | 0.00 | 0.00 | 30 | 1009.6 |
| 20260508013045 | 15 | 199 | 1.6 | 0.0 | 0.00 | 0.00 | 0.00 | 29 | 1009.6 |
| 20260508011553 | 16 | 145 | 1.6 | 0.0 | 0.00 | 0.00 | 0.00 | 30 | 1009.0 |
| 20260508010045 | 17 | 168 | 1.6 | 0.0 | 0.00 | 0.00 | 0.00 | 27 | 1008.6 |
| 20260508004543 | 18 | 147 | 1.6 | 0.0 | 0.00 | 0.00 | 0.00 | 26 | 1008.0 |
| 20260508003049 | 18 | 295 | 1.6 | 0.0 | 0.00 | 0.00 | 0.00 | 27 | 1008.1 |
| 20260508001543 | 18 | 133 | 1.6 | 0.0 | 0.00 | 0.00 | 0.00 | 26 | 1008.6 |
| 20260508000040 | 18 | 138 | 3.2 | 0.0 | 0.00 | 0.00 | 0.00 | 30 | 1008.0 |
| 20260507234541 | 18 | 200 | 3.2 | 0.0 | 0.00 | 0.00 | 0.00 | 26 | 1008.0 |
| 20260507233041 | 19 | 133 | 1.6 | 0.0 | 0.00 | 0.00 | 0.00 | 26 | 1007.6 |
| 20260507231550 | 19 | 329 | 1.6 | 0.0 | 0.00 | 0.00 | 0.00 | 27 | 1007.4 |
| 20260507230040 | 19 | 217 | 1.6 | 0.0 | 0.00 | 0.00 | 0.00 | 27 | 1007.3 |